Regional Weather Roundup
Issued by NWS Bismarck, ND

Home | Current Version | Previous Version | Text Only | Print | Product List | Glossary On
Versions: 1 2 3 4 5 6 7 8 9 10 11 12 13 14 15 16 17 18 19 20 21 22 23 24 25 26 27 28 29 30 31 32 33 34 35 36 37 38 39 40 41 42 43 44 45 46 47 48 49 50
000
ASUS43 KBIS 221610
RWRBIS

NWR BROADCAST TEXT
NATIONAL WEATHER SERVICE BISMARCK ND
1100 AM CDT SUN APR 22 2018

NOTE: "FAIR" INDICATES FEW OR NO CLOUDS BELOW 12,000 FEET WITH NO
SIGNIFICANT WEATHER AND/OR OBSTRUCTIONS TO VISIBILITY.


CITY           SKY/WX    TMP DP  RH WIND       PRES   REMARKS
WILLISTON      SUNNY     57  31  37 W7        30.14R
MINOT          SUNNY     58  34  40 NW12      30.11R
MINOT AFB      MOSUNNY   56  33  42 NW12      30.10R
BISMARCK       SUNNY     55  38  52 S14       30.16F
DICKINSON      SUNNY     58  28  32 NE8       30.12R
GARRISON         N/A     50  39  66 SW5       30.13S
HETTINGER ARPT SUNNY     53  38  56 CALM      30.15F
JAMESTOWN      SUNNY     53  38  56 SW16      30.20S
CARRINGTON     FAIR      54  39  58 S21       30.18F
LINTON           N/A    N/A N/A N/A S17G24    30.21S
OAKES            N/A     52  36  54 S18       30.24F
TIOGA          FAIR      52  32  46 NW7       30.14S
$$

CITY           SKY/WX    TMP DP  RH WIND       PRES   REMARKS
GRAND FORKS    FAIR      51  40  65 S22       30.21R
GRAND FORKS AF FAIR      53  40  61 S17       30.20R
DEVILS LAKE    FAIR      49  36  61 SW12      30.16R
FARGO          FAIR      54  38  54 S13       30.24F
CANDO          FAIR      54  39  58 SW15      30.15S
CAVALIER         N/A     55  39  54 S21       30.13F
GWINNER          N/A     54  39  58 S16       30.24F
ROLLA          PTSUNNY   46  45  93 SW12      30.11S
WALHALLA       FAIR      55  39  54 SW18G28   30.12S
$$

CITY           SKY/WX    TMP DP  RH WIND       PRES   REMARKS
ABERDEEN       SUNNY     54  38  54 S13       30.26F
MOBRIDGE       SUNNY     54  39  57 S15       30.18R
BUFFALO          N/A     54  33  45 NE6       30.08S
RAPID CITY     SUNNY     53  38  56 CALM      30.16F
GLASGOW        SUNNY     53  29  39 VRB7      30.14S
SIDNEY         SUNNY     56  29  35 CALM      30.15S
WOLF POINT     MOSUNNY   55  30  38 W8        30.14F
GLENDIVE       SUNNY     57  30  35 SE5       30.16S
MILES CITY     SUNNY     54  27  35 W6        30.17S
BAKER          MOSUNNY   55  30  38 NW10      30.16S
$$

CITY           SKY/WX    TMP DP  RH WIND       PRES   REMARKS
BILLINGS       MOSUNNY   54  22  28 E10       30.15F
GREAT FALLS    MOSUNNY   48  23  37 NW10      30.16F
REGINA         MOSUNNY   50  34  53 W20G26    30.05S
ESTEVAN        MOSUNNY   55  32  41 W15       30.09S
$$





USA.gov is the U.S. government's official web portal to all federal, state and local government web resources and services.